Year,Month,Day,Hour,Minute,Value (Times are PST for temperature in C)
2011,04,23,00,00,3.30
2011,04,23,00,01,3.30
2011,04,23,00,02,3.30
2011,04,23,00,03,3.30
2011,04,23,00,04,3.30
2011,04,23,00,05,3.30
2011,04,23,00,06,3.30
2011,04,23,00,07,3.30
2011,04,23,00,08,3.30
2011,04,23,00,09,3.30
2011,04,23,00,10,3.30
2011,04,23,00,11,3.30
2011,04,23,00,12,3.30
2011,04,23,00,13,3.20
2011,04,23,00,14,3.20
2011,04,23,00,15,3.20
2011,04,23,00,16,3.20
2011,04,23,00,17,3.20
2011,04,23,00,18,3.20
2011,04,23,00,19,3.20
2011,04,23,00,20,3.20
2011,04,23,00,21,3.20
2011,04,23,00,22,3.20
2011,04,23,00,23,3.20
2011,04,23,00,24,3.10
2011,04,23,00,25,3.10
2011,04,23,00,26,3.10
2011,04,23,00,27,3.10
2011,04,23,00,28,3.10
2011,04,23,00,29,3.10
2011,04,23,00,30,3.10
2011,04,23,00,31,3.10
2011,04,23,00,32,3.00
2011,04,23,00,33,3.00
2011,04,23,00,34,3.00
2011,04,23,00,35,3.00
2011,04,23,00,36,3.00
2011,04,23,00,37,2.90
2011,04,23,00,38,2.90
2011,04,23,00,39,2.90
2011,04,23,00,40,2.90
2011,04,23,00,41,2.90
2011,04,23,00,42,2.90
2011,04,23,00,43,2.90
2011,04,23,00,44,2.90
2011,04,23,00,45,2.90
2011,04,23,00,46,2.90
2011,04,23,00,47,2.90
2011,04,23,00,48,3.00
2011,04,23,00,49,3.00
2011,04,23,00,50,3.00
2011,04,23,00,51,3.00
2011,04,23,00,52,3.10
2011,04,23,00,53,3.10
2011,04,23,00,54,3.10
2011,04,23,00,55,3.10
2011,04,23,00,56,3.10
2011,04,23,00,57,3.10
2011,04,23,00,58,3.10
2011,04,23,00,59,3.10
2011,04,23,01,00,3.20
2011,04,23,01,01,3.20
2011,04,23,01,02,3.20
2011,04,23,01,03,3.20
2011,04,23,01,04,3.20
2011,04,23,01,05,3.20
2011,04,23,01,06,3.20
2011,04,23,01,07,3.20
2011,04,23,01,08,3.20
2011,04,23,01,09,3.20
2011,04,23,01,10,3.20
2011,04,23,01,11,3.20
2011,04,23,01,12,3.20
2011,04,23,01,13,3.20
2011,04,23,01,14,3.20
2011,04,23,01,15,3.20
2011,04,23,01,16,3.20
2011,04,23,01,17,3.20
2011,04,23,01,18,3.20
2011,04,23,01,19,3.20
2011,04,23,01,20,3.10
2011,04,23,01,21,3.10
2011,04,23,01,22,3.10
2011,04,23,01,23,3.10
2011,04,23,01,24,3.10
2011,04,23,01,25,3.10
2011,04,23,01,26,3.10
2011,04,23,01,27,3.00
2011,04,23,01,28,3.00
2011,04,23,01,29,3.00
2011,04,23,01,30,2.90
2011,04,23,01,31,2.90
2011,04,23,01,32,2.90
2011,04,23,01,33,2.90
2011,04,23,01,34,2.90
2011,04,23,01,35,2.90
2011,04,23,01,36,2.90
2011,04,23,01,37,2.80
2011,04,23,01,38,2.80
2011,04,23,01,39,2.80
2011,04,23,01,40,2.80
2011,04,23,01,41,2.80
2011,04,23,01,42,2.80
2011,04,23,01,43,2.80
2011,04,23,01,44,2.80
2011,04,23,01,45,2.70
2011,04,23,01,46,2.70
2011,04,23,01,47,2.70
2011,04,23,01,48,2.70
2011,04,23,01,49,2.70
2011,04,23,01,50,2.70
2011,04,23,01,51,2.70
2011,04,23,01,52,2.70
2011,04,23,01,53,2.70
2011,04,23,01,54,2.60
2011,04,23,01,55,2.60
2011,04,23,01,56,2.60
2011,04,23,01,57,2.60
2011,04,23,01,58,2.60
2011,04,23,01,59,2.60
2011,04,23,02,00,2.50
2011,04,23,02,01,2.50
2011,04,23,02,02,2.50
2011,04,23,02,03,2.50
2011,04,23,02,04,2.50
2011,04,23,02,05,2.50
2011,04,23,02,06,2.50
2011,04,23,02,07,2.50
2011,04,23,02,08,2.50
2011,04,23,02,09,2.50
2011,04,23,02,10,2.50
2011,04,23,02,11,2.50
2011,04,23,02,12,2.50
2011,04,23,02,13,2.50
2011,04,23,02,14,2.50
2011,04,23,02,15,2.50
2011,04,23,02,16,2.50
2011,04,23,02,17,2.50
2011,04,23,02,18,2.50
2011,04,23,02,19,2.40
2011,04,23,02,20,2.40
2011,04,23,02,21,2.40
2011,04,23,02,22,2.50
2011,04,23,02,23,2.50
2011,04,23,02,24,2.50
2011,04,23,02,25,2.50
2011,04,23,02,26,2.60
2011,04,23,02,27,2.60
2011,04,23,02,28,2.60
2011,04,23,02,29,2.60
2011,04,23,02,30,2.70
2011,04,23,02,31,2.70
2011,04,23,02,32,2.70
2011,04,23,02,33,2.80
2011,04,23,02,34,2.80
2011,04,23,02,35,2.80
2011,04,23,02,36,2.90
2011,04,23,02,37,2.90
2011,04,23,02,38,2.90
2011,04,23,02,39,2.90
2011,04,23,02,40,3.00
2011,04,23,02,41,3.00
2011,04,23,02,42,3.00
2011,04,23,02,43,3.00
2011,04,23,02,44,3.00
2011,04,23,02,45,3.00
2011,04,23,02,46,3.00
2011,04,23,02,47,3.00
2011,04,23,02,48,3.00
2011,04,23,02,49,2.90
2011,04,23,02,50,2.90
2011,04,23,02,51,2.90
2011,04,23,02,52,2.90
2011,04,23,02,53,2.90
2011,04,23,02,54,2.90
2011,04,23,02,55,2.90
2011,04,23,02,56,2.90
2011,04,23,02,57,2.80
2011,04,23,02,58,2.80
2011,04,23,02,59,2.70
2011,04,23,03,00,2.70
2011,04,23,03,01,2.60
2011,04,23,03,02,2.60
2011,04,23,03,03,2.50
2011,04,23,03,04,2.50
2011,04,23,03,05,2.40
2011,04,23,03,06,2.40
2011,04,23,03,07,2.30
2011,04,23,03,08,2.30
2011,04,23,03,09,2.20
2011,04,23,03,10,2.20
2011,04,23,03,11,2.20
2011,04,23,03,12,2.10
2011,04,23,03,13,2.10
2011,04,23,03,14,2.10
2011,04,23,03,15,2.10
2011,04,23,03,16,2.00
2011,04,23,03,17,2.00
2011,04,23,03,18,2.00
2011,04,23,03,19,1.90
2011,04,23,03,20,1.90
2011,04,23,03,21,1.90
2011,04,23,03,22,1.90
2011,04,23,03,23,1.90
2011,04,23,03,24,1.90
2011,04,23,03,25,1.90
2011,04,23,03,26,1.90
2011,04,23,03,27,1.90
2011,04,23,03,28,1.90
2011,04,23,03,29,1.90
2011,04,23,03,30,1.90
2011,04,23,03,31,1.90
2011,04,23,03,32,1.90
2011,04,23,03,33,1.90
2011,04,23,03,34,1.80
2011,04,23,03,35,1.80
2011,04,23,03,36,1.80
2011,04,23,03,37,1.80
2011,04,23,03,38,1.80
2011,04,23,03,39,1.80
2011,04,23,03,40,1.80
2011,04,23,03,41,1.80
2011,04,23,03,42,1.80
2011,04,23,03,43,1.80
2011,04,23,03,44,1.80
2011,04,23,03,45,1.80
2011,04,23,03,46,1.80
2011,04,23,03,47,1.80
2011,04,23,03,48,1.70
2011,04,23,03,49,1.70
2011,04,23,03,50,1.70
2011,04,23,03,51,1.70
2011,04,23,03,52,1.70
2011,04,23,03,53,1.70
2011,04,23,03,54,1.70
2011,04,23,03,55,1.70
2011,04,23,03,56,1.70
2011,04,23,03,57,1.70
2011,04,23,03,58,1.70
2011,04,23,03,59,1.70
2011,04,23,04,00,1.60
2011,04,23,04,01,1.70
2011,04,23,04,02,1.70
2011,04,23,04,03,1.70
2011,04,23,04,04,1.70
2011,04,23,04,05,1.70
2011,04,23,04,06,1.70
2011,04,23,04,07,1.70
2011,04,23,04,08,1.80
2011,04,23,04,09,1.80
2011,04,23,04,10,1.80
2011,04,23,04,11,1.80
2011,04,23,04,12,1.80
2011,04,23,04,13,1.80
2011,04,23,04,14,1.80
2011,04,23,04,15,1.80
2011,04,23,04,16,1.90
2011,04,23,04,17,1.90
2011,04,23,04,18,1.90
2011,04,23,04,19,1.90
2011,04,23,04,20,2.00
2011,04,23,04,21,2.00
2011,04,23,04,22,2.10
2011,04,23,04,23,2.20
2011,04,23,04,24,2.20
2011,04,23,04,25,2.30
2011,04,23,04,26,2.30
2011,04,23,04,27,2.30
2011,04,23,04,28,2.40
2011,04,23,04,29,2.40
2011,04,23,04,30,2.40
2011,04,23,04,31,2.40
2011,04,23,04,32,2.40
2011,04,23,04,33,2.40
2011,04,23,04,34,2.40
2011,04,23,04,35,2.40
2011,04,23,04,36,2.40
2011,04,23,04,37,2.30
2011,04,23,04,38,2.30
2011,04,23,04,39,2.30
2011,04,23,04,40,2.30
2011,04,23,04,41,2.30
2011,04,23,04,42,2.30
2011,04,23,04,43,2.30
2011,04,23,04,44,2.30
2011,04,23,04,45,2.30
2011,04,23,04,46,2.30
2011,04,23,04,47,2.30
2011,04,23,04,48,2.30
2011,04,23,04,49,2.30
2011,04,23,04,50,2.30
2011,04,23,04,51,2.30
2011,04,23,04,52,2.30
2011,04,23,04,53,2.30
2011,04,23,04,54,2.30
2011,04,23,04,55,2.30
2011,04,23,04,56,2.30
2011,04,23,04,57,2.30
2011,04,23,04,58,2.30
2011,04,23,04,59,2.30
2011,04,23,05,00,2.30
2011,04,23,05,01,2.30
2011,04,23,05,02,2.30
2011,04,23,05,03,2.30
2011,04,23,05,04,2.30
2011,04,23,05,05,2.30
2011,04,23,05,06,2.30
2011,04,23,05,07,2.40
2011,04,23,05,08,2.40
2011,04,23,05,09,2.50
2011,04,23,05,10,2.60
2011,04,23,05,11,2.60
2011,04,23,05,12,2.70
2011,04,23,05,13,2.70
2011,04,23,05,14,2.70
2011,04,23,05,15,2.70
2011,04,23,05,16,2.80
2011,04,23,05,17,2.80
2011,04,23,05,18,2.80
2011,04,23,05,19,2.80
2011,04,23,05,20,2.80
2011,04,23,05,21,2.80
2011,04,23,05,22,2.80
2011,04,23,05,23,2.80
2011,04,23,05,24,2.80
2011,04,23,05,25,2.80
2011,04,23,05,26,2.80
2011,04,23,05,27,2.80
2011,04,23,05,28,2.80
2011,04,23,05,29,2.90
2011,04,23,05,30,2.90
2011,04,23,05,31,2.90
2011,04,23,05,32,2.90
2011,04,23,05,33,2.90
2011,04,23,05,34,2.90
2011,04,23,05,35,2.90
2011,04,23,05,36,3.00
2011,04,23,05,37,3.00
2011,04,23,05,38,3.00
2011,04,23,05,39,3.00
2011,04,23,05,40,3.10
2011,04,23,05,41,3.10
2011,04,23,05,42,3.10
2011,04,23,05,43,3.10
2011,04,23,05,44,3.10
2011,04,23,05,45,3.10
2011,04,23,05,46,3.10
2011,04,23,05,47,3.10
2011,04,23,05,48,3.10
2011,04,23,05,49,3.20
2011,04,23,05,50,3.20
2011,04,23,05,51,3.20
2011,04,23,05,52,3.20
2011,04,23,05,53,3.20
2011,04,23,05,54,3.20
2011,04,23,05,55,3.10
2011,04,23,05,56,3.10
2011,04,23,05,57,3.10
2011,04,23,05,58,3.10
2011,04,23,05,59,3.00
2011,04,23,06,00,3.00
2011,04,23,06,01,2.90
2011,04,23,06,02,2.90
2011,04,23,06,03,2.90
2011,04,23,06,04,2.90
2011,04,23,06,05,2.90
2011,04,23,06,06,2.80
2011,04,23,06,07,2.80
2011,04,23,06,08,2.80
2011,04,23,06,09,2.80
2011,04,23,06,10,2.70
2011,04,23,06,11,2.70
2011,04,23,06,12,2.70
2011,04,23,06,13,2.70
2011,04,23,06,14,2.60
2011,04,23,06,15,2.60
2011,04,23,06,16,2.60
2011,04,23,06,17,2.60
2011,04,23,06,18,2.60
2011,04,23,06,19,2.60
2011,04,23,06,20,2.60
2011,04,23,06,21,2.60
2011,04,23,06,22,2.60
2011,04,23,06,23,2.60
2011,04,23,06,24,2.60
2011,04,23,06,25,2.60
2011,04,23,06,26,2.60
2011,04,23,06,27,2.60
2011,04,23,06,28,2.60
2011,04,23,06,29,2.60
2011,04,23,06,30,2.60
2011,04,23,06,31,2.60
2011,04,23,06,32,2.60
2011,04,23,06,33,2.60
2011,04,23,06,34,2.60
2011,04,23,06,35,2.60
2011,04,23,06,36,2.60
2011,04,23,06,37,2.60
2011,04,23,06,38,2.50
2011,04,23,06,39,2.60
2011,04,23,06,40,2.60
2011,04,23,06,41,2.60
2011,04,23,06,42,2.60
2011,04,23,06,43,2.60
2011,04,23,06,44,2.50
2011,04,23,06,45,2.50
2011,04,23,06,46,2.50
2011,04,23,06,47,2.60
2011,04,23,06,48,2.60
2011,04,23,06,49,2.60
2011,04,23,06,50,2.60
2011,04,23,06,51,2.60
2011,04,23,06,52,2.70
2011,04,23,06,53,2.70
2011,04,23,06,54,2.70
2011,04,23,06,55,2.70
2011,04,23,06,56,2.80
2011,04,23,06,57,2.80
2011,04,23,06,58,2.90
2011,04,23,06,59,2.90
2011,04,23,07,00,3.00
2011,04,23,07,01,3.00
2011,04,23,07,02,3.10
2011,04,23,07,03,3.10
2011,04,23,07,04,3.20
2011,04,23,07,05,3.20
2011,04,23,07,06,3.30
2011,04,23,07,07,3.40
2011,04,23,07,08,3.50
2011,04,23,07,09,3.50
2011,04,23,07,10,3.60
2011,04,23,07,11,3.60
2011,04,23,07,12,3.70
2011,04,23,07,13,3.70
2011,04,23,07,14,3.70
2011,04,23,07,15,3.80
2011,04,23,07,16,3.90
2011,04,23,07,17,3.90
2011,04,23,07,18,4.00
2011,04,23,07,19,4.10
2011,04,23,07,20,4.10
2011,04,23,07,21,4.20
2011,04,23,07,22,4.20
2011,04,23,07,23,4.30
2011,04,23,07,24,4.40
2011,04,23,07,25,4.40
2011,04,23,07,26,4.50
2011,04,23,07,27,4.60
2011,04,23,07,28,4.60
2011,04,23,07,29,4.70
2011,04,23,07,30,4.70
2011,04,23,07,31,4.80
2011,04,23,07,32,4.90
2011,04,23,07,33,4.90
2011,04,23,07,34,5.00
2011,04,23,07,35,5.10
2011,04,23,07,36,5.10
2011,04,23,07,37,5.20
2011,04,23,07,38,5.20
2011,04,23,07,39,5.30
2011,04,23,07,40,5.30
2011,04,23,07,41,5.40
2011,04,23,07,42,5.40
2011,04,23,07,43,5.50
2011,04,23,07,44,5.60
2011,04,23,07,45,5.70
2011,04,23,07,46,5.80
2011,04,23,07,47,5.80
2011,04,23,07,48,5.90
2011,04,23,07,49,5.90
2011,04,23,07,50,6.00
2011,04,23,07,51,6.10
2011,04,23,07,52,6.20
2011,04,23,07,53,6.20
2011,04,23,07,54,6.30
2011,04,23,07,55,6.30
2011,04,23,07,56,6.40
2011,04,23,07,57,6.40
2011,04,23,07,58,6.50
2011,04,23,07,59,6.60
2011,04,23,08,00,6.60
2011,04,23,08,01,6.70
2011,04,23,08,02,6.80
2011,04,23,08,03,6.80
2011,04,23,08,04,6.90
2011,04,23,08,05,7.00
2011,04,23,08,06,7.10
2011,04,23,08,07,7.10
2011,04,23,08,08,7.20
2011,04,23,08,09,7.30
2011,04,23,08,10,7.30
2011,04,23,08,11,7.40
2011,04,23,08,12,7.50
2011,04,23,08,13,7.50
2011,04,23,08,14,7.60
2011,04,23,08,15,7.70
2011,04,23,08,16,7.80
2011,04,23,08,17,7.80
2011,04,23,08,18,7.90
2011,04,23,08,19,7.90
2011,04,23,08,20,8.00
2011,04,23,08,21,8.00
2011,04,23,08,22,8.00
2011,04,23,08,23,8.10
2011,04,23,08,24,8.10
2011,04,23,08,25,8.20
2011,04,23,08,26,8.20
2011,04,23,08,27,8.20
2011,04,23,08,28,8.30
2011,04,23,08,29,8.30
2011,04,23,08,30,8.40
2011,04,23,08,31,8.40
2011,04,23,08,32,8.50
2011,04,23,08,33,8.60
2011,04,23,08,34,8.60
2011,04,23,08,35,8.60
2011,04,23,08,36,8.70
2011,04,23,08,37,8.70
2011,04,23,08,38,8.80
2011,04,23,08,39,8.80
2011,04,23,08,40,8.90
2011,04,23,08,41,8.90
2011,04,23,08,42,8.90
2011,04,23,08,43,8.90
2011,04,23,08,44,9.00
2011,04,23,08,45,9.00
2011,04,23,08,46,9.00
2011,04,23,08,47,9.10
2011,04,23,08,48,9.10
2011,04,23,08,49,9.10
2011,04,23,08,50,9.20
2011,04,23,08,51,9.20
2011,04,23,08,52,9.20
2011,04,23,08,53,9.30
2011,04,23,08,54,9.30
2011,04,23,08,55,9.30
2011,04,23,08,56,9.40
2011,04,23,08,57,9.40
2011,04,23,08,58,9.40
2011,04,23,08,59,9.40
2011,04,23,09,00,9.50
2011,04,23,09,01,9.50
2011,04,23,09,02,9.60
2011,04,23,09,03,9.60
2011,04,23,09,04,9.60
2011,04,23,09,05,9.70
2011,04,23,09,06,9.70
2011,04,23,09,07,9.80
2011,04,23,09,08,9.80
2011,04,23,09,09,9.80
2011,04,23,09,10,9.80
2011,04,23,09,11,9.80
2011,04,23,09,12,9.70
2011,04,23,09,13,9.70
2011,04,23,09,14,9.60
2011,04,23,09,15,9.60
2011,04,23,09,16,9.50
2011,04,23,09,17,9.50
2011,04,23,09,18,9.50
2011,04,23,09,19,9.50
2011,04,23,09,20,9.50
2011,04,23,09,21,9.60
2011,04,23,09,22,9.60
2011,04,23,09,23,9.60
2011,04,23,09,24,9.60
2011,04,23,09,25,9.60
2011,04,23,09,26,9.60
2011,04,23,09,27,9.60
2011,04,23,09,28,9.60
2011,04,23,09,29,9.60
2011,04,23,09,30,9.70
2011,04,23,09,31,9.70
2011,04,23,09,32,9.60
2011,04,23,09,33,9.60
2011,04,23,09,34,9.60
2011,04,23,09,35,9.70
2011,04,23,09,36,9.70
2011,04,23,09,37,9.70
2011,04,23,09,38,9.70
2011,04,23,09,39,9.80
2011,04,23,09,40,9.80
2011,04,23,09,41,9.80
2011,04,23,09,42,9.80
2011,04,23,09,43,9.90
2011,04,23,09,44,10.00
2011,04,23,09,45,10.10
2011,04,23,09,46,10.20
2011,04,23,09,47,10.30
2011,04,23,09,48,10.30
2011,04,23,09,49,10.30
2011,04,23,09,50,10.30
2011,04,23,09,51,10.30
2011,04,23,09,52,10.30
2011,04,23,09,53,10.30
2011,04,23,09,54,10.40
2011,04,23,09,55,10.40
2011,04,23,09,56,10.50
2011,04,23,09,57,10.60
2011,04,23,09,58,10.60
2011,04,23,09,59,10.60
2011,04,23,10,00,10.60
2011,04,23,10,01,10.60
2011,04,23,10,02,10.60
2011,04,23,10,03,10.70
2011,04,23,10,04,10.80
2011,04,23,10,05,10.90
2011,04,23,10,06,10.90
2011,04,23,10,07,11.00
2011,04,23,10,08,11.10
2011,04,23,10,09,11.10
2011,04,23,10,10,11.20
2011,04,23,10,11,11.30
2011,04,23,10,12,11.30
2011,04,23,10,13,11.30
2011,04,23,10,14,11.30
2011,04,23,10,15,11.30
2011,04,23,10,16,11.30
2011,04,23,10,17,11.30
2011,04,23,10,18,11.30
2011,04,23,10,19,11.30
2011,04,23,10,20,11.30
2011,04,23,10,21,11.30
2011,04,23,10,22,11.40
2011,04,23,10,23,11.60
2011,04,23,10,24,11.60
2011,04,23,10,25,11.80
2011,04,23,10,26,11.90
2011,04,23,10,27,11.90
2011,04,23,10,28,11.80
2011,04,23,10,29,11.60
2011,04,23,10,30,11.60
2011,04,23,10,31,11.50
2011,04,23,10,32,11.40
2011,04,23,10,33,11.40
2011,04,23,10,34,11.50
2011,04,23,10,35,11.60
2011,04,23,10,36,11.70
2011,04,23,10,37,11.80
2011,04,23,10,38,11.90
2011,04,23,10,39,12.00
2011,04,23,10,40,12.10
2011,04,23,10,41,12.10
2011,04,23,10,42,12.00
2011,04,23,10,43,11.90
2011,04,23,10,44,11.80
2011,04,23,10,45,11.80
2011,04,23,10,46,11.80
2011,04,23,10,47,11.80
2011,04,23,10,48,11.80
2011,04,23,10,49,11.80
2011,04,23,10,50,11.90
2011,04,23,10,51,11.90
2011,04,23,10,52,11.90
2011,04,23,10,53,12.00
2011,04,23,10,54,12.00
2011,04,23,10,55,12.10
2011,04,23,10,56,12.10
2011,04,23,10,57,12.20
2011,04,23,10,58,12.20
2011,04,23,10,59,12.20
2011,04,23,11,00,12.20
2011,04,23,11,01,12.20
2011,04,23,11,02,12.20
2011,04,23,11,03,12.20
2011,04,23,11,04,12.30
2011,04,23,11,05,12.40
2011,04,23,11,06,12.30
2011,04,23,11,07,12.30
2011,04,23,11,08,12.40
2011,04,23,11,09,12.30
2011,04,23,11,10,12.20
2011,04,23,11,11,12.10
2011,04,23,11,12,12.00
2011,04,23,11,13,12.00
2011,04,23,11,14,12.00
2011,04,23,11,15,12.10
2011,04,23,11,16,12.10
2011,04,23,11,17,12.10
2011,04,23,11,18,12.20
2011,04,23,11,19,12.30
2011,04,23,11,20,12.30
2011,04,23,11,21,12.40
2011,04,23,11,22,12.40
2011,04,23,11,23,12.40
2011,04,23,11,24,12.50
2011,04,23,11,25,12.60
2011,04,23,11,26,12.70
2011,04,23,11,27,12.80
2011,04,23,11,28,12.90
2011,04,23,11,29,12.90
2011,04,23,11,30,13.00
2011,04,23,11,31,13.10
2011,04,23,11,32,13.20
2011,04,23,11,33,13.30
2011,04,23,11,34,13.40
2011,04,23,11,35,13.40
2011,04,23,11,36,13.30
2011,04,23,11,37,13.30
2011,04,23,11,38,13.40
2011,04,23,11,39,13.40
2011,04,23,11,40,13.40
2011,04,23,11,41,13.50
2011,04,23,11,42,13.50
2011,04,23,11,43,13.50
2011,04,23,11,44,13.50
2011,04,23,11,45,13.40
2011,04,23,11,46,13.30
2011,04,23,11,47,13.20
2011,04,23,11,48,13.10
2011,04,23,11,49,13.20
2011,04,23,11,50,13.20
2011,04,23,11,51,13.20
2011,04,23,11,52,13.30
2011,04,23,11,53,13.30
2011,04,23,11,54,13.30
2011,04,23,11,55,13.40
2011,04,23,11,56,13.50
2011,04,23,11,57,13.50
2011,04,23,11,58,13.40
2011,04,23,11,59,13.50
2011,04,23,12,00,13.50
2011,04,23,12,01,13.50
2011,04,23,12,02,13.40
2011,04,23,12,03,13.30
2011,04,23,12,04,13.30
2011,04,23,12,05,13.30
2011,04,23,12,06,13.10
2011,04,23,12,07,13.10
2011,04,23,12,08,13.20
2011,04,23,12,09,13.00
2011,04,23,12,10,12.80
2011,04,23,12,11,12.70
2011,04,23,12,12,12.80
2011,04,23,12,13,12.80
2011,04,23,12,14,12.90
2011,04,23,12,15,12.90
2011,04,23,12,16,13.00
2011,04,23,12,17,13.10
2011,04,23,12,18,13.20
2011,04,23,12,19,13.30
2011,04,23,12,20,13.50
2011,04,23,12,21,13.60
2011,04,23,12,22,13.60
2011,04,23,12,23,13.60
2011,04,23,12,24,13.60
2011,04,23,12,25,13.70
2011,04,23,12,26,13.80
2011,04,23,12,27,13.90
2011,04,23,12,28,13.90
2011,04,23,12,29,13.90
2011,04,23,12,30,13.80
2011,04,23,12,31,13.70
2011,04,23,12,32,13.70
2011,04,23,12,33,13.70
2011,04,23,12,34,13.70
2011,04,23,12,35,13.80
2011,04,23,12,36,13.80
2011,04,23,12,37,13.80
2011,04,23,12,38,13.80
2011,04,23,12,39,13.90
2011,04,23,12,40,14.00
2011,04,23,12,41,14.00
2011,04,23,12,42,14.10
2011,04,23,12,43,14.00
2011,04,23,12,44,13.90
2011,04,23,12,45,13.90
2011,04,23,12,46,13.80
2011,04,23,12,47,13.80
2011,04,23,12,48,13.80
2011,04,23,12,49,13.80
2011,04,23,12,50,13.80
2011,04,23,12,51,13.80
2011,04,23,12,52,13.80
2011,04,23,12,53,13.90
2011,04,23,12,54,14.00
2011,04,23,12,55,14.20
2011,04,23,12,56,14.20
2011,04,23,12,57,14.30
2011,04,23,12,58,14.50
2011,04,23,12,59,14.50
2011,04,23,13,00,14.60
2011,04,23,13,01,14.70
2011,04,23,13,02,14.70
2011,04,23,13,03,14.70
2011,04,23,13,04,14.70
2011,04,23,13,05,14.70
2011,04,23,13,06,14.70
2011,04,23,13,07,14.80
2011,04,23,13,08,14.80
2011,04,23,13,09,14.70
2011,04,23,13,10,14.70
2011,04,23,13,11,14.70
2011,04,23,13,12,14.70
2011,04,23,13,13,14.80
2011,04,23,13,14,14.80
2011,04,23,13,15,14.80
2011,04,23,13,16,14.80
2011,04,23,13,17,14.80
2011,04,23,13,18,14.60
2011,04,23,13,19,14.50
2011,04,23,13,20,14.40
2011,04,23,13,21,14.40
2011,04,23,13,22,14.50
2011,04,23,13,23,14.60
2011,04,23,13,24,14.80
2011,04,23,13,25,15.00
2011,04,23,13,26,14.90
2011,04,23,13,27,14.80
2011,04,23,13,28,14.80
2011,04,23,13,29,14.70
2011,04,23,13,30,14.60
2011,04,23,13,31,14.70
2011,04,23,13,32,14.70
2011,04,23,13,33,14.70
2011,04,23,13,34,14.70
2011,04,23,13,35,14.70
2011,04,23,13,36,14.50
2011,04,23,13,37,14.40
2011,04,23,13,38,14.40
2011,04,23,13,39,14.50
2011,04,23,13,40,14.70
2011,04,23,13,41,14.70
2011,04,23,13,42,14.70
2011,04,23,13,43,14.60
2011,04,23,13,44,14.50
2011,04,23,13,45,14.50
2011,04,23,13,46,14.50
2011,04,23,13,47,14.50
2011,04,23,13,48,14.60
2011,04,23,13,49,14.70
2011,04,23,13,50,14.90
2011,04,23,13,51,15.00
2011,04,23,13,52,15.00
2011,04,23,13,53,15.00
2011,04,23,13,54,15.00
2011,04,23,13,55,15.00
2011,04,23,13,56,15.00
2011,04,23,13,57,15.00
2011,04,23,13,58,15.00
2011,04,23,13,59,15.00
2011,04,23,14,00,15.00
2011,04,23,14,01,15.00
2011,04,23,14,02,15.00
2011,04,23,14,03,15.00
2011,04,23,14,04,15.10
2011,04,23,14,05,15.20
2011,04,23,14,06,15.20
2011,04,23,14,07,15.20
2011,04,23,14,08,15.20
2011,04,23,14,09,15.20
2011,04,23,14,10,15.20
2011,04,23,14,11,15.00
2011,04,23,14,12,14.60
2011,04,23,14,13,14.50
2011,04,23,14,14,14.40
2011,04,23,14,15,14.30
2011,04,23,14,16,14.50
2011,04,23,14,17,14.70
2011,04,23,14,18,14.90
2011,04,23,14,19,15.00
2011,04,23,14,20,15.00
2011,04,23,14,21,15.00
2011,04,23,14,22,15.00
2011,04,23,14,23,15.00
2011,04,23,14,24,15.00
2011,04,23,14,25,15.00
2011,04,23,14,26,15.10
2011,04,23,14,27,15.00
2011,04,23,14,28,15.00
2011,04,23,14,29,15.00
2011,04,23,14,30,15.00
2011,04,23,14,31,15.10
2011,04,23,14,32,15.10
2011,04,23,14,33,15.10
2011,04,23,14,34,15.00
2011,04,23,14,35,15.10
2011,04,23,14,36,15.20
2011,04,23,14,37,15.20
2011,04,23,14,38,15.30
2011,04,23,14,39,15.30
2011,04,23,14,40,15.30
2011,04,23,14,41,15.40
2011,04,23,14,42,15.40
2011,04,23,14,43,15.30
2011,04,23,14,44,15.10
2011,04,23,14,45,14.90
2011,04,23,14,46,14.70
2011,04,23,14,47,14.70
2011,04,23,14,48,14.70
2011,04,23,14,49,14.70
2011,04,23,14,50,14.70
2011,04,23,14,51,14.80
2011,04,23,14,52,14.90
2011,04,23,14,53,15.00
2011,04,23,14,54,15.20
2011,04,23,14,55,15.30
2011,04,23,14,56,15.40
2011,04,23,14,57,15.20
2011,04,23,14,58,15.00
2011,04,23,14,59,15.00
2011,04,23,15,00,15.00
2011,04,23,15,01,15.00
2011,04,23,15,02,15.00
2011,04,23,15,03,15.00
2011,04,23,15,04,15.00
2011,04,23,15,05,15.10
2011,04,23,15,06,15.00
2011,04,23,15,07,15.00
2011,04,23,15,08,14.90
2011,04,23,15,09,14.70
2011,04,23,15,10,14.50
2011,04,23,15,11,14.40
2011,04,23,15,12,14.40
2011,04,23,15,13,14.40
2011,04,23,15,14,14.50
2011,04,23,15,15,14.70
2011,04,23,15,16,14.90
2011,04,23,15,17,15.00
2011,04,23,15,18,15.10
2011,04,23,15,19,15.30
2011,04,23,15,20,15.40
2011,04,23,15,21,15.40
2011,04,23,15,22,15.40
2011,04,23,15,23,15.20
2011,04,23,15,24,15.00
2011,04,23,15,25,15.00
2011,04,23,15,26,14.90
2011,04,23,15,27,14.90
2011,04,23,15,28,14.90
2011,04,23,15,29,15.00
2011,04,23,15,30,15.00
2011,04,23,15,31,15.00
2011,04,23,15,32,15.10
2011,04,23,15,33,15.20
2011,04,23,15,34,15.30
2011,04,23,15,35,15.30
2011,04,23,15,36,15.20
2011,04,23,15,37,15.20
2011,04,23,15,38,15.10
2011,04,23,15,39,15.10
2011,04,23,15,40,15.20
2011,04,23,15,41,15.40
2011,04,23,15,42,15.50
2011,04,23,15,43,15.60
2011,04,23,15,44,15.70
2011,04,23,15,45,15.80
2011,04,23,15,46,15.90
2011,04,23,15,47,16.00
2011,04,23,15,48,16.00
2011,04,23,15,49,16.10
2011,04,23,15,50,16.10
2011,04,23,15,51,16.10
2011,04,23,15,52,16.10
2011,04,23,15,53,15.90
2011,04,23,15,54,15.80
2011,04,23,15,55,15.70
2011,04,23,15,56,15.60
2011,04,23,15,57,15.40
2011,04,23,15,58,15.40
2011,04,23,15,59,15.30
2011,04,23,16,00,15.40
2011,04,23,16,01,15.40
2011,04,23,16,02,15.40
2011,04,23,16,03,15.50
2011,04,23,16,04,15.50
2011,04,23,16,05,15.40
2011,04,23,16,06,15.40
2011,04,23,16,07,15.50
2011,04,23,16,08,15.50
2011,04,23,16,09,15.50
2011,04,23,16,10,15.60
2011,04,23,16,11,15.60
2011,04,23,16,12,15.50
2011,04,23,16,13,15.40
2011,04,23,16,14,15.20
2011,04,23,16,15,15.10
2011,04,23,16,16,15.10
2011,04,23,16,17,15.30
2011,04,23,16,18,15.50
2011,04,23,16,19,15.70
2011,04,23,16,20,15.90
2011,04,23,16,21,16.00
2011,04,23,16,22,15.90
2011,04,23,16,23,15.70
2011,04,23,16,24,15.40
2011,04,23,16,25,15.20
2011,04,23,16,26,15.00
2011,04,23,16,27,15.10
2011,04,23,16,28,15.20
2011,04,23,16,29,15.30
2011,04,23,16,30,15.50
2011,04,23,16,31,15.60
2011,04,23,16,32,15.60
2011,04,23,16,33,15.60
2011,04,23,16,34,15.50
2011,04,23,16,35,15.50
2011,04,23,16,36,15.40
2011,04,23,16,37,15.30
2011,04,23,16,38,15.20
2011,04,23,16,39,15.10
2011,04,23,16,40,15.10
2011,04,23,16,41,15.00
2011,04,23,16,42,15.00
2011,04,23,16,43,15.00
2011,04,23,16,44,15.00
2011,04,23,16,45,15.10
2011,04,23,16,46,15.30
2011,04,23,16,47,15.40
2011,04,23,16,48,15.40
2011,04,23,16,49,15.40
2011,04,23,16,50,15.40
2011,04,23,16,51,15.60
2011,04,23,16,52,15.70
2011,04,23,16,53,15.90
2011,04,23,16,54,16.00
2011,04,23,16,55,16.10
2011,04,23,16,56,16.10
2011,04,23,16,57,16.10
2011,04,23,16,58,16.10
2011,04,23,16,59,16.20
2011,04,23,17,00,16.30
2011,04,23,17,01,16.30
2011,04,23,17,02,16.30
2011,04,23,17,03,16.30
2011,04,23,17,04,16.30
2011,04,23,17,05,16.30
2011,04,23,17,06,16.30
2011,04,23,17,07,16.30
2011,04,23,17,08,16.30
2011,04,23,17,09,16.20
2011,04,23,17,10,16.30
2011,04,23,17,11,16.20
2011,04,23,17,12,16.10
2011,04,23,17,13,16.00
2011,04,23,17,14,16.00
2011,04,23,17,15,16.10
2011,04,23,17,16,16.00
2011,04,23,17,17,16.00
2011,04,23,17,18,16.00
2011,04,23,17,19,15.90
2011,04,23,17,20,15.70
2011,04,23,17,21,15.60
2011,04,23,17,22,15.50
2011,04,23,17,23,15.50
2011,04,23,17,24,15.50
2011,04,23,17,25,15.60
2011,04,23,17,26,15.60
2011,04,23,17,27,15.60
2011,04,23,17,28,15.70
2011,04,23,17,29,15.70
2011,04,23,17,30,15.70
2011,04,23,17,31,15.80
2011,04,23,17,32,15.80
2011,04,23,17,33,15.90
2011,04,23,17,34,16.00
2011,04,23,17,35,16.00
2011,04,23,17,36,16.00
2011,04,23,17,37,16.10
2011,04,23,17,38,16.00
2011,04,23,17,39,15.80
2011,04,23,17,40,15.70
2011,04,23,17,41,15.60
2011,04,23,17,42,15.50
2011,04,23,17,43,15.40
2011,04,23,17,44,15.40